Location: Boullarre
(49.1305°N, 3.0047°E)
Time: 13:41:28
(UTC+00:00)

ISS - Visible Passes

Search period start: 20 September 2024 00:00
Search period end: 30 September 2024 00:00
Orbit: 413 x 423 km, 51.6° (Epoch: 20 September)

Date Brightness Start Highest point End Pass type
(mag) Time Alt. Az. Time Alt. Az. Time Alt. Az.
20 Sep -3.2 18:42:58 10° W 18:46:17 55° N 18:49:13 13° ENE visible
20 Sep -2.2 20:19:57 10° WNW 20:22:09 37° WNW 20:22:09 37° WNW visible
21 Sep -3.5 19:32:06 10° WNW 19:35:26 59° N 19:36:04 48° ENE visible
21 Sep -0.3 21:08:57 10° WNW 21:09:00 10° WNW 21:09:00 10° WNW visible
22 Sep -3.3 18:44:12 10° WNW 18:47:30 54° N 18:49:58 16° E visible
22 Sep -1.9 20:21:03 10° WNW 20:22:54 30° WNW 20:22:54 30° WNW visible
23 Sep -3.9 19:33:08 10° WNW 19:36:31 86° NNE 19:36:46 74° E visible
24 Sep -3.7 18:45:12 10° WNW 18:48:33 69° NNE 18:50:38 21° E visible
24 Sep -1.4 20:22:06 10° W 20:23:34 21° W 20:23:34 21° W visible
25 Sep -3.4 19:34:02 10° WNW 19:37:19 51° SSW 19:37:26 51° SSW visible
26 Sep -3.7 18:45:59 10° WNW 18:49:20 73° SSW 18:51:19 22° ESE visible
26 Sep -0.8 20:23:27 10° W 20:24:14 13° WSW 20:24:14 13° WSW visible
27 Sep -2.1 19:35:00 10° W 19:37:48 24° SW 19:38:09 24° SSW visible
28 Sep -2.5 18:46:43 10° W 18:49:50 36° SSW 18:52:06 16° SSE visible
29 Sep -3.1 17:58:30 10° WNW 18:01:47 53° SSW 18:05:03 10° SE visible
29 Sep -0.9 19:36:56 10° WSW 19:37:56 11° SW 19:38:57 10° SSW visible
